RH
90 97 86 82 79 80 80 79 83 75 73 73 79 77 66 67 63 83 81 85 77 69 76 75 68 67 74 83 92 84 84 94 100 100 100 100 100 100 100 100 92 75 62 52 59 67 54
100 99 98 100 96 89 82 78 74 76 74 73 73 85 74 76 76 73 70 67 72 100 100 100 90 76 57 62 68 56 54 52 49 56 56 62 67 80 92 100 97 86 74 59 61 67 57
93 87 84 78 85 91 84 82 72 75 81 76 67 72 77 74 82 82 74 74 84 93 75 82 88 97 100 94 75 65 63 72 100 100 87 58 71 75 69 74 77 73 66 61 61 57 57
96 91 92 83 82 92 90 97 98 82 78 91 96 92 83 84 92 99 100 100 100 85 92 90 86 76 70 69 83 92 91 62 57 68 79 80 75 62 60 62 61 50 54 58 60 55 58
97 91 83 97 99 95 92 92 91 82 86 90 95 99 93 100 97 91 85 80 92 94 89 83 76 83 93 95 100 92 72 73 75 66 58 63 62 63 70 64 60 59 62 61 64 62 55
100 100 100 100 100 100 100 92 87 87 77 76 85 96 88 90 82 77 77 75 78 79 76 72 68 67 74 90 96 97 85 67 68 76 81 82 82 86 82 70 63 64 62 57 55 57 51
93 91 100 97 92 89 85 77 72 71 76 80 80 75 74 68 58 43 43 40 35 39 40 44 49 52 59 60 66 73 79 74 76 76 76 79 74 67 58 62 61 59 57 55 55 55 48
85 81 81 77 68 71 75 67 61 56 50 43 30 30 29 29 28 26 26 26 27 27 31 32 32 34 33 35 35 35 41 41 37 43 57 63 59 65 68 70 66 58 58 56 54 48 52
44 36 33 29 28 23 20 20 21 20 22 23 23 25 26 30 32 29 27 28 29 30 32 41 33 33 35 36 35 40 38 39 39 38 38 40 40 42 44 48 52 60 58 50 50 50 44
22 22 22 25 23 21 20 23 22 20 21 22 26 28 28 30 36 29 30 32 35 37 37 43 40 38 40 40 42 40 37 40 39 38 38 40 43 39 40 42 40 45 46 48 49 43 41
29 22 24 24 27 31 39 53 53 35 25 23 26 28 38 45 44 48 38 42 37 41 56 46 48 44 35 39 41 41 42 41 40 39 40 47 42 43 42 46 49 47 46 46 48 42 38
32 41 36 38 42 57 52 80 80 68 63 33 29 37 37 66 64 69 67 55 50 52 64 58 64 54 54 74 74 81 69 53 57 62 57 57 52 64 59 54 60 56 52 51 50 46 39
32 34 43 44 45 62 69 84 91 84 61 52 59 73 57 59 88 74 76 82 75 76 72 74 80 76 65 64 54 51 74 100 100 94 88 68 80 86 86 65 72 77 60 58 55 58 48
59 43 71 57 64 83 73 72 56 87 65 45 68 87 69 96 88 92 73 96 88 85 99 88 79 50 44 49 41 42 44 39 43 60 79 91 83 100 100 87 71 72 77 70 57 58 56
59 65 87 79 64 100 96 59 56 64 61 52 66 88 100 100 99 100 100 85 95 88 90 79 47 47 52 47 39 31 28 31 29 33 36 39 82 100 100 100 94 82 91 92 70 66 53
54 46 44 49 53 52 84 72 64 65 64 73 72 100 100 100 100 100 100 98 91 93 87 60 48 47 37 36 28 26 26 24 23 28 30 34 34 86 96 68 98 88 91 99 94 70 60
63 46 56 45 41 58 66 83 83 83 73 92 99 100 100 100 100 100 91 90 94 86 73 56 52 41 41 35 27 23 20 19 21 24 30 32 29 39 48 47 69 100 91 88 97 73 76
78 66 46 61 53 51 89 97 80 88 88 100 100 100 100 100 97 82 98 98 96 85 62 47 45 42 34 28 25 21 16 16 18 23 28 32 34 36 43 46 67 99 100 94 94 77 71
84 57 55 61 70 72 87 86 83 100 100 100 100 97 98 82 57 87 97 96 69 53 48 45 41 32 27 26 22 16 16 16 19 23 27 28 29 36 40 44 71 86 88 100 83 69 70
97 75 84 88 72 85 99 100 100 100 100 100 100 99 88 64 89 99 81 64 54 45 44 36 31 30 28 20 16 14 15 16 25 25 23 23 27 32 37 48 49 77 79 81 79 70 71
81 100 81 85 98 100 100 100 100 100 100 78 60 72 71 60 86 84 62 56 46 47 46 44 32 27 18 15 16 20 20 20 21 26 24 24 25 28 41 35 50 57 62 82 78 86 49
100 100 98 100 100 100 100 96 93 84 59 61 74 75 91 100 82 62 51 47 50 49 48 34 28 24 16 19 20 27 21 25 26 26 31 29 29 31 43 40 37 56 67 64 91 63 34
98 100 100 99 88 76 66 73 70 56 52 76 97 100 96 74 62 57 46 50 47 44 36 30 26 18 18 17 21 19 23 30 28 31 33 30 29 27 30 37 37 53 87 52 53 45 39
100 95 94 62 46 54 60 56 55 49 79 100 100 94 86 68 59 43 50 49 37 31 30 27 20 20 19 18 18 17 18 22 28 30 25 28 29 28 30 32 34 60 50 53 52 42 28
100 77 61 49 57 53 48 41 63 94 99 96 78 78 68 54 42 51 50 38 31 32 26 20 19 20 18 18 17 18 20 18 20 24 27 26 22 23 23 28 40 46 37 46 52 31 26
84 79 72 67 71 59 55 81 100 100 96 79 57 45 47 41 49 40 37 30 32 27 20 20 18 18 18 17 16 16 18 21 18 21 22 23 23 23 24 22 27 30 40 46 49 35 35
63 71 87 74 58 70 87 99 84 71 62 57 62 52 42 49 42 35 30 29 23 18 17 17 18 17 16 17 16 17 17 18 18 16 21 24 22 22 22 21 26 24 34 44 39 30 46
77 67 62 63 86 79 85 91 94 78 79 66 50 44 44 42 34 33 25 18 16 15 14 17 16 16 16 15 15 15 16 18 18 16 19 21 24 28 24 24 20 24 32 34 38 35 35
72 79 82 89 87 85 64 73 74 68 60 41 43 42 44 33 31 21 16 15 14 14 15 14 12 12 10 10 11 12 12 13 16 18 17 20 19 20 19 21 22 19 25 33 29 28 31
Wind_Speed
27 30 30 30 31 30 32 32 33 34 35 35 34 36 38 38 36 34 36 37 39 41 38 37 37 37 37 38 40 41 39 39 42 44 44 45 47 47 50 53 57 58 55 54 54 56 57
30 30 31 32 33 34 35 37 39 37 39 39 39 40 41 41 40 40 41 43 44 42 40 41 41 42 42 42 43 44 47 50 52 54 55 54 55 55 56 55 58 61 60 59 58 58 59
34 36 38 39 38 37 38 38 37 37 39 42 43 44 46 46 46 49 48 48 46 46 47 48 45 44 47 50 54 57 55 51 51 53 57 58 58 58 60 62 62 63 63 60 59 61 61
36 37 38 40 40 40 41 40 41 41 43 45 45 46 48 50 50 50 49 51 50 49 52 54 53 55 59 59 58 58 58 55 58 58 59 60 60 61 62 63 63 63 63 63 61 61 60
42 43 44 42 42 44 46 46 45 46 47 47 49 52 53 51 52 54 55 54 54 55 57 57 59 56 57 58 60 61 61 63 64 62 64 65 65 65 66 66 64 63 64 65 64 62 65
38 40 43 43 43 43 42 43 45 48 49 51 53 54 55 56 56 54 53 52 53 54 54 55 55 56 57 59 60 64 66 63 63 64 67 68 67 67 68 68 67 67 68 69 66 64 65
42 42 43 44 44 44 45 44 44 45 43 44 47 50 52 51 51 51 49 48 48 50 54 53 54 55 56 57 60 62 61 62 63 64 65 67 67 69 70 69 70 68 67 66 67 66 66
40 42 43 45 45 44 42 41 41 40 40 40 37 37 37 37 37 38 39 40 41 41 44 44 45 47 49 50 53 56 56 57 58 59 59 60 62 63 64 64 65 66 66 65 65 63 58
27 26 26 23 18 14 16 20 23 25 27 26 27 29 29 31 33 32 35 37 42 42 41 49 49 47 48 51 49 51 52 52 53 54 55 56 57 60 62 63 62 62 61 60 56 56 55
15 10 14 13 13 15 19 24 24 30 30 28 33 32 36 39 37 41 43 47 50 45 39 43 47 52 53 53 53 54 55 54 54 55 52 50 53 56 57 60 60 60 60 58 56 54 51
26 19 25 19 27 24 30 34 37 41 40 39 42 43 43 46 48 51 59 61 60 58 54 57 62 61 61 57 56 56 56 57 60 59 56 55 53 53 53 55 57 58 57 56 56 54 52
29 30 32 32 32 35 37 42 45 49 52 51 50 49 52 53 55 58 61 66 67 61 62 67 69 75 72 69 72 73 72 68 64 62 62 64 59 59 57 56 57 55 55 56 53 53 50
38 39 38 38 37 36 40 45 49 50 56 58 59 56 57 59 61 65 69 68 71 64 70 69 72 76 78 78 79 78 75 75 75 75 72 68 65 63 63 61 59 59 57 55 53 49 50
41 43 46 47 47 43 45 49 51 53 59 59 58 60 63 62 64 69 74 74 75 74 74 78 80 90 88 93 83 77 73 74 80 83 78 76 69 65 68 67 65 63 62 60 52 49 44
42 45 46 48 50 52 55 54 55 57 61 61 62 64 68 68 72 77 75 74 81 83 82 86 95 97 97 95 89 87 87 85 82 78 78 78 76 72 69 72 72 67 64 64 57 53 43
47 50 50 54 56 55 58 59 60 63 65 66 63 67 70 72 78 80 81 87 90 87 90 98 102 101 94 91 97 93 86 84 79 79 79 79 75 76 74 71 71 71 66 64 65 55 50
52 55 56 60 60 60 63 65 65 66 69 68 67 68 73 77 82 86 89 93 94 96 101 107 107 101 98 99 95 83 76 77 73 74 80 82 77 72 74 74 71 69 67 66 65 57 49
57 58 64 64 62 63 64 68 69 73 69 71 71 75 82 85 87 94 95 98 99 102 113 113 110 108 101 102 88 79 73 75 70 73 75 77 76 73 76 77 72 69 66 67 66 60 51
64 69 67 70 68 69 68 72 73 72 74 76 82 83 88 93 99 96 96 102 105 112 112 113 110 105 105 95 83 74 73 71 69 71 73 74 74 73 73 73 72 72 69 68 69 66 58
72 72 72 75 76 76 73 76 77 79 82 84 88 90 95 100 98 101 104 111 114 115 113 112 111 111 97 84 76 67 69 65 65 70 70 71 72 74 72 73 74 71 73 71 71 66 67
78 78 76 79 73 71 73 75 80 81 83 90 94 98 100 101 100 103 115 116 117 117 117 115 114 101 87 74 65 64 61 60 61 65 66 69 66 72 72 71 74 73 70 74 72 73 72
81 80 80 72 69 71 73 76 82 88 95 98 100 101 100 98 107 115 120 118 119 119 120 117 113 96 76 68 59 55 57 56 55 60 60 64 62 67 69 72 72 71 73 74 81 75 67
79 76 76 80 83 85 86 85 91 98 102 98 98 96 104 112 117 121 120 122 122 122 118 114 100 86 71 60 61 57 53 54 54 57 59 60 60 64 60 69 70 66 74 74 75 72 67
81 81 84 90 92 91 91 94 98 100 98 97 99 106 111 116 120 121 121 124 124 119 120 104 90 82 74 67 62 59 57 56 56 57 58 55 59 60 56 63 63 68 70 73 72 71 69
86 90 91 94 90 90 98 99 98 97 98 102 106 113 116 118 123 123 126 124 123 123 107 93 86 81 76 70 63 60 60 60 57 56 58 59 59 57 54 56 56 61 63 65 66 66 66
93 95 95 91 92 98 99 96 97 102 105 111 115 119 117 120 125 127 124 125 121 105 92 90 87 81 79 72 68 62 62 63 59 57 58 60 61 58 57 57 55 56 57 58 58 60 59
98 95 92 98 103 99 97 98 105 109 115 115 122 124 125 124 124 127 128 117 105 97 91 88 86 82 76 74 69 66 64 64 61 59 57 62 64 62 64 60 58 55 54 57 59 54 54
93 98 100 100 100 102 103 108 109 117 120 124 129 127 127 125 124 122 111 101 97 95 88 85 82 82 79 75 72 70 65 63 63 62 59 63 66 68 69 66 63 55 56 59 54 53 56
98 96 98 101 105 108 116 115 118 121 126 127 130 127 128 125 115 105 101 96 94 90 86 86 84 82 77 72 71 69 70 64 65 63 66 66 70 71 69 64 65 58 59 59 62 57 56
Wind_Direction
263 261 265 270 274 282 286 289 292 293 294 293 289 290 294 296 291 289 292 289 293 296 287 284 280 280 278 277 277 281 286 286 286 286 287 287 288 290 290 292 292 293 294 293 293 295 295
259 262 264 269 275 281 284 287 288 288 289 290 290 289 293 292 290 287 290 289 289 285 286 284 284 282 280 277 279 277 282 282 280 279 280 283 282 283 286 288 290 291 292 293 293 293 293
258 264 269 272 276 280 281 286 287 286 288 291 290 292 293 293 289 290 292 294 289 285 285 282 280 282 279 279 283 284 286 281 283 282 280 284 282 282 285 287 288 291 292 292 293 293 291
260 264 271 276 276 278 280 284 285 287 288 289 289 290 291 292 290 290 290 290 288 285 280 281 280 282 284 284 284 282 284 285 283 282 282 283 285 287 288 289 290 290 290 290 290 289 289
268 270 273 275 275 277 279 282 284 286 285 285 286 287 288 287 288 289 290 287 283 284 284 283 284 282 283 283 284 285 286 287 288 285 284 286 286 286 287 289 289 289 291 292 291 291 292
273 275 274 274 275 278 281 283 284 283 284 283 283 284 288 288 289 291 290 289 288 287 286 287 286 285 283 282 283 284 287 288 287 287 286 286 286 287 288 288 288 289 290 290 289 289 289
272 274 275 279 282 283 284 285 284 286 289 289 289 290 291 292 294 294 292 291 293 292 290 290 289 287 287 287 286 285 285 286 286 286 286 287 286 287 287 287 287 287 286 286 287 289 292
280 281 281 284 286 287 287 291 292 293 294 296 301 302 304 306 308 305 306 305 306 306 305 297 298 299 299 298 297 294 290 290 291 288 287 287 289 289 289 288 289 290 290 291 291 290 291
281 284 286 284 286 308 328 325 326 328 328 318 317 318 326 319 315 323 325 323 327 315 311 303 305 302 299 301 301 297 295 294 293 292 291 289 288 289 289 289 289 290 290 291 290 291 292
332 307 324 314 323 340 338 338 338 335 334 331 330 332 330 330 332 332 336 333 334 342 318 301 304 307 302 302 302 299 296 291 290 290 291 293 295 292 290 291 289 287 288 288 287 289 292
343 325 335 337 333 322 322 318 327 328 334 331 330 333 332 325 330 327 334 331 334 332 325 328 328 324 320 314 308 304 298 296 297 297 296 297 299 301 304 297 293 289 288 286 287 289 289
323 330 327 328 325 323 321 315 315 319 320 326 324 325 327 324 321 321 322 325 325 321 318 323 323 320 318 312 310 306 304 303 298 299 300 296 298 300 302 302 297 295 290 290 289 291 291
317 319 321 318 316 313 312 312 312 313 318 317 317 316 318 323 318 318 319 315 319 312 314 315 316 312 309 304 303 299 297 295 293 293 295 295 293 295 297 301 298 295 294 294 293 293 291
307 312 311 313 313 311 309 306 308 306 310 313 310 310 312 313 313 314 314 312 312 312 310 310 308 310 308 304 302 298 294 291 289 287 287 286 286 287 289 293 296 293 292 293 294 293 293
303 307 301 301 304 301 300 301 302 302 306 310 309 307 308 308 307 306 307 306 307 307 306 305 310 310 308 306 302 301 297 293 289 283 282 281 278 279 283 286 288 289 288 289 290 293 289
293 297 297 297 295 298 296 297 300 300 305 307 304 302 300 302 304 304 303 303 304 305 305 307 307 308 306 305 304 298 292 287 283 281 280 279 276 273 276 279 279 282 283 285 287 288 286
291 295 296 298 295 298 297 297 298 300 301 302 300 297 300 301 301 301 302 301 302 303 304 306 306 308 306 305 305 297 291 282 280 275 274 274 274 271 272 274 272 274 277 279 282 283 282
289 293 296 297 295 296 295 296 298 299 298 300 300 298 300 300 301 301 299 301 302 302 304 308 308 310 309 309 303 298 291 283 276 272 270 268 267 268 270 270 269 267 271 275 278 280 276
286 292 292 295 298 295 294 296 299 300 300 299 299 298 299 302 305 301 299 299 303 306 307 309 309 310 311 308 301 296 289 283 278 270 267 266 266 266 266 267 266 266 265 266 270 274 274
288 291 292 295 301 298 296 297 298 298 297 296 297 298 299 305 302 299 302 304 307 308 309 310 312 312 310 304 298 292 287 284 276 270 268 266 265 265 263 264 266 263 264 264 267 271 267
288 289 291 296 298 298 297 299 298 299 297 299 301 300 301 302 300 303 305 307 306 307 310 311 313 311 308 301 295 290 283 280 277 273 270 265 264 264 263 263 262 263 263 264 265 266 265
289 292 295 296 298 298 296 297 298 300 302 302 300 300 300 301 303 304 306 306 307 308 309 311 312 309 304 299 295 287 284 281 277 273 269 267 265 261 260 262 262 264 264 265 264 265 264
287 288 290 293 297 298 300 299 299 302 303 300 299 297 300 302 303 304 308 308 309 309 310 311 309 305 301 297 292 285 281 278 275 273 270 268 266 264 260 261 261 262 261 263 265 265 263
283 286 291 295 298 297 297 300 300 300 297 293 295 298 300 302 304 306 307 308 307 309 310 308 304 301 299 295 291 287 281 275 272 272 271 267 267 263 259 258 261 258 259 261 263 262 262
286 289 291 295 294 294 298 300 296 292 292 293 294 297 300 303 305 306 306 308 307 308 306 303 300 299 294 291 287 283 280 274 271 267 266 265 265 264 263 258 257 257 255 257 260 258 259
288 292 293 295 297 299 300 297 294 295 296 297 299 302 302 306 307 307 306 306 306 304 303 301 297 293 291 289 285 281 275 273 268 267 264 264 261 260 258 254 253 253 256 256 257 255 255
288 291 295 297 298 298 297 294 295 295 297 299 300 302 307 309 308 306 306 304 303 301 300 297 294 292 289 286 282 278 275 271 270 264 262 263 261 259 256 253 251 251 250 252 252 251 254
290 293 296 297 296 296 296 297 297 299 299 302 302 306 308 309 308 306 302 302 301 298 298 295 292 289 285 283 280 276 271 269 266 263 259 255 258 255 253 254 250 248 250 252 248 245 246
292 295 294 293 294 295 297 299 298 300 301 304 306 308 308 309 306 303 302 301 299 299 297 294 290 287 285 280 277 274 272 267 263 262 260 256 254 254 254 256 253 246 246 247 245 242 239